# Tabular Observed and Forecast Hydrograph Information
#
# Location: South Fork Eel River - Leggett (LEGC1)
#
# File Generation Time: 09/01/2026 at 07:21 AM PDT
# Data Interval: 1 Hour
#
# Most Recent Date & Time of Maximum Observed: 08/28/2026 at 02:00 PM PDT
# Maximum Observed Stage: 4.99 Feet
# Maximum Observed Flow: 19 cfs
#
# Earliest Date & Time of Maximum Forecast: 09/03/2026 at 03:00 PM PDT
# Maximum Forecast Stage: 7.12 Feet
# Maximum Forecast Flow: 271 cfs
#
# OBSERVED
#
# Date & Time (Local) Stage (Feet) Flow (cfs) Trend Observed Status
# ---------------------------------------------------------------------------------
08/27/2026 07 AM PDT 4.96 18 Not Applicable
08/27/2026 08 AM PDT 4.96 18 0 Not Applicable
08/27/2026 09 AM PDT 4.97 18 + Not Applicable
08/27/2026 10 AM PDT 4.97 18 0 Not Applicable
08/27/2026 11 AM PDT 4.98 18 + Not Applicable
08/27/2026 12 PM PDT 4.99 19 + Not Applicable
08/27/2026 01 PM PDT 4.99 19 0 Not Applicable
08/27/2026 02 PM PDT 4.99 19 0 Not Applicable
08/27/2026 03 PM PDT 4.99 19 0 Not Applicable
08/27/2026 04 PM PDT 4.99 19 0 Not Applicable
08/27/2026 05 PM PDT 4.99 19 0 Not Applicable
08/27/2026 06 PM PDT 4.98 18 - Not Applicable
08/27/2026 07 PM PDT 4.98 18 0 Not Applicable
08/27/2026 08 PM PDT 4.97 18 - Not Applicable
08/27/2026 09 PM PDT 4.97 18 0 Not Applicable
08/27/2026 10 PM PDT 4.97 18 0 Not Applicable
08/27/2026 11 PM PDT 4.97 18 0 Not Applicable
08/28/2026 12 AM PDT 4.97 18 0 Not Applicable
08/28/2026 01 AM PDT 4.96 18 - Not Applicable
08/28/2026 02 AM PDT 4.96 18 0 Not Applicable
08/28/2026 03 AM PDT 4.96 18 0 Not Applicable
08/28/2026 04 AM PDT 4.96 18 0 Not Applicable
08/28/2026 05 AM PDT 4.96 18 0 Not Applicable
08/28/2026 06 AM PDT 4.96 18 0 Not Applicable
08/28/2026 07 AM PDT 4.96 18 0 Not Applicable
08/28/2026 08 AM PDT 4.96 18 0 Not Applicable
08/28/2026 09 AM PDT 4.96 18 0 Not Applicable
08/28/2026 10 AM PDT 4.97 18 + Not Applicable
08/28/2026 11 AM PDT 4.98 18 + Not Applicable
08/28/2026 12 PM PDT 4.98 18 0 Not Applicable
08/28/2026 01 PM PDT 4.98 18 0 Not Applicable
08/28/2026 02 PM PDT 4.99 19 + Not Applicable
08/28/2026 03 PM PDT 4.98 18 - Not Applicable
08/28/2026 04 PM PDT 4.98 18 0 Not Applicable
08/28/2026 05 PM PDT 4.98 18 0 Not Applicable
08/28/2026 06 PM PDT 4.97 18 - Not Applicable
08/28/2026 07 PM PDT 4.97 18 0 Not Applicable
08/28/2026 08 PM PDT 4.97 18 0 Not Applicable
08/28/2026 09 PM PDT 4.97 18 0 Not Applicable
08/28/2026 10 PM PDT 4.96 18 - Not Applicable
08/28/2026 11 PM PDT 4.96 18 0 Not Applicable
08/29/2026 12 AM PDT 4.96 18 0 Not Applicable
08/29/2026 01 AM PDT 4.96 18 0 Not Applicable
08/29/2026 02 AM PDT 4.96 18 0 Not Applicable
08/29/2026 03 AM PDT 4.96 18 0 Not Applicable
08/29/2026 04 AM PDT 4.96 18 0 Not Applicable
08/29/2026 05 AM PDT 4.96 18 0 Not Applicable
08/29/2026 06 AM PDT 4.96 18 0 Not Applicable
08/29/2026 07 AM PDT 4.96 18 0 Not Applicable
08/29/2026 08 AM PDT 4.96 18 0 Not Applicable
08/29/2026 09 AM PDT 4.96 18 0 Not Applicable
08/29/2026 10 AM PDT 4.97 18 + Not Applicable
08/29/2026 11 AM PDT 4.98 18 + Not Applicable
08/29/2026 12 PM PDT 4.98 18 0 Not Applicable
08/29/2026 01 PM PDT 4.98 18 0 Not Applicable
08/29/2026 02 PM PDT 4.97 18 - Not Applicable
08/29/2026 03 PM PDT 4.98 18 + Not Applicable
08/29/2026 04 PM PDT 4.97 18 - Not Applicable
08/29/2026 05 PM PDT 4.98 18 + Not Applicable
08/29/2026 06 PM PDT 4.98 18 0 Not Applicable
08/29/2026 07 PM PDT 4.97 18 - Not Applicable
08/29/2026 08 PM PDT 4.96 18 - Not Applicable
08/29/2026 09 PM PDT 4.96 18 0 Not Applicable
08/29/2026 10 PM PDT 4.96 18 0 Not Applicable
08/29/2026 11 PM PDT 4.96 18 0 Not Applicable
08/30/2026 12 AM PDT 4.96 18 0 Not Applicable
08/30/2026 01 AM PDT 4.96 18 0 Not Applicable
08/30/2026 02 AM PDT 4.95 17 - Not Applicable
08/30/2026 03 AM PDT 4.95 17 0 Not Applicable
08/30/2026 04 AM PDT 4.95 17 0 Not Applicable
08/30/2026 05 AM PDT 4.95 17 0 Not Applicable
08/30/2026 06 AM PDT 4.95 17 0 Not Applicable
08/30/2026 07 AM PDT 4.95 17 0 Not Applicable
08/30/2026 08 AM PDT 4.96 18 + Not Applicable
08/30/2026 09 AM PDT 4.96 18 0 Not Applicable
08/30/2026 10 AM PDT 4.97 18 + Not Applicable
08/30/2026 11 AM PDT 4.98 18 + Not Applicable
08/30/2026 12 PM PDT 4.98 18 0 Not Applicable
08/30/2026 01 PM PDT 4.98 18 0 Not Applicable
08/30/2026 02 PM PDT 4.98 18 0 Not Applicable
08/30/2026 03 PM PDT 4.98 18 0 Not Applicable
08/30/2026 04 PM PDT 4.98 18 0 Not Applicable
08/30/2026 05 PM PDT 4.97 18 - Not Applicable
08/30/2026 06 PM PDT 4.97 18 0 Not Applicable
08/30/2026 07 PM PDT 4.97 18 0 Not Applicable
08/30/2026 08 PM PDT 4.96 18 - Not Applicable
08/30/2026 09 PM PDT 4.96 18 0 Not Applicable
08/30/2026 10 PM PDT 4.96 18 0 Not Applicable
08/30/2026 11 PM PDT 4.96 18 0 Not Applicable
08/31/2026 12 AM PDT 4.96 18 0 Not Applicable
08/31/2026 01 AM PDT 4.96 18 0 Not Applicable
08/31/2026 02 AM PDT 4.96 18 0 Not Applicable
08/31/2026 03 AM PDT 4.95 17 - Not Applicable
08/31/2026 04 AM PDT 4.95 17 0 Not Applicable
08/31/2026 05 AM PDT 4.96 18 + Not Applicable
08/31/2026 06 AM PDT 4.96 18 0 Not Applicable
08/31/2026 07 AM PDT 4.96 18 0 Not Applicable
08/31/2026 08 AM PDT 4.96 18 0 Not Applicable
08/31/2026 09 AM PDT 4.96 18 0 Not Applicable
08/31/2026 10 AM PDT 4.96 18 0 Not Applicable
08/31/2026 11 AM PDT 4.98 18 + Not Applicable
08/31/2026 12 PM PDT 4.98 18 0 Not Applicable
08/31/2026 01 PM PDT 4.98 18 0 Not Applicable
08/31/2026 02 PM PDT 4.98 18 0 Not Applicable
08/31/2026 03 PM PDT 4.98 18 0 Not Applicable
08/31/2026 04 PM PDT 4.97 18 - Not Applicable
08/31/2026 05 PM PDT 4.97 18 0 Not Applicable
08/31/2026 06 PM PDT 4.97 18 0 Not Applicable
08/31/2026 07 PM PDT 4.97 18 0 Not Applicable
08/31/2026 08 PM PDT 4.96 18 - Not Applicable
08/31/2026 09 PM PDT 4.96 18 0 Not Applicable
08/31/2026 10 PM PDT 4.96 18 0 Not Applicable
08/31/2026 11 PM PDT 4.96 18 0 Not Applicable
09/01/2026 12 AM PDT 4.96 18 0 Not Applicable
09/01/2026 01 AM PDT 4.96 18 0 Not Applicable
09/01/2026 02 AM PDT 4.96 18 0 Not Applicable
09/01/2026 03 AM PDT 4.96 18 0 Not Applicable
09/01/2026 04 AM PDT 4.96 18 0 Not Applicable
09/01/2026 05 AM PDT 4.96 18 0 Not Applicable
09/01/2026 06 AM PDT 4.96 18 0 Not Applicable
09/01/2026 07 AM PDT 4.96 18 0 Not Applicable
#
# FORECAST
#
# Date & Time (Local) Stage (Feet) Flow (cfs) Trend Forecast Status
# ---------------------------------------------------------------------------------
09/01/2026 08 AM PDT 4.96 18 Not Applicable
09/01/2026 09 AM PDT 4.96 18 0 Not Applicable
09/01/2026 10 AM PDT 4.96 18 0 Not Applicable
09/01/2026 11 AM PDT 4.96 18 0 Not Applicable
09/01/2026 12 PM PDT 4.96 18 0 Not Applicable
09/01/2026 01 PM PDT 4.96 18 0 Not Applicable
09/01/2026 02 PM PDT 4.96 18 0 Not Applicable
09/01/2026 03 PM PDT 4.96 18 0 Not Applicable
09/01/2026 04 PM PDT 4.96 18 0 Not Applicable
09/01/2026 05 PM PDT 4.96 18 0 Not Applicable
09/01/2026 06 PM PDT 4.96 18 0 Not Applicable
09/01/2026 07 PM PDT 4.96 18 0 Not Applicable
09/01/2026 08 PM PDT 4.96 18 0 Not Applicable
09/01/2026 09 PM PDT 4.96 18 0 Not Applicable
09/01/2026 10 PM PDT 4.96 18 0 Not Applicable
09/01/2026 11 PM PDT 4.96 18 0 Not Applicable
09/02/2026 12 AM PDT 4.95 17 - Not Applicable
09/02/2026 01 AM PDT 4.95 17 0 Not Applicable
09/02/2026 02 AM PDT 4.95 17 0 Not Applicable
09/02/2026 03 AM PDT 4.95 17 0 Not Applicable
09/02/2026 04 AM PDT 4.95 17 0 Not Applicable
09/02/2026 05 AM PDT 4.95 17 0 Not Applicable
09/02/2026 06 AM PDT 4.95 17 0 Not Applicable
09/02/2026 07 AM PDT 4.95 17 0 Not Applicable
09/02/2026 08 AM PDT 4.95 17 0 Not Applicable
09/02/2026 09 AM PDT 4.95 17 0 Not Applicable
09/02/2026 10 AM PDT 4.95 17 0 Not Applicable
09/02/2026 11 AM PDT 4.95 17 0 Not Applicable
09/02/2026 12 PM PDT 4.95 17 0 Not Applicable
09/02/2026 01 PM PDT 4.95 17 0 Not Applicable
09/02/2026 02 PM PDT 4.95 17 0 Not Applicable
09/02/2026 03 PM PDT 4.95 17 0 Not Applicable
09/02/2026 04 PM PDT 4.95 17 0 Not Applicable
09/02/2026 05 PM PDT 4.95 17 0 Not Applicable
09/02/2026 06 PM PDT 4.96 18 + Not Applicable
09/02/2026 07 PM PDT 4.97 18 + Not Applicable
09/02/2026 08 PM PDT 4.98 18 + Not Applicable
09/02/2026 09 PM PDT 5.01 19 + Not Applicable
09/02/2026 10 PM PDT 5.05 21 + Not Applicable
09/02/2026 11 PM PDT 5.12 24 + Not Applicable
09/03/2026 12 AM PDT 5.22 28 + Not Applicable
09/03/2026 01 AM PDT 5.37 36 + Not Applicable
09/03/2026 02 AM PDT 5.56 49 + Not Applicable
09/03/2026 03 AM PDT 5.78 66 + Not Applicable
09/03/2026 04 AM PDT 5.99 86 + Not Applicable
09/03/2026 05 AM PDT 6.20 110 + Not Applicable
09/03/2026 06 AM PDT 6.38 134 + Not Applicable
09/03/2026 07 AM PDT 6.54 158 + Not Applicable
09/03/2026 08 AM PDT 6.67 180 + Not Applicable
09/03/2026 09 AM PDT 6.79 201 + Not Applicable
09/03/2026 10 AM PDT 6.89 221 + Not Applicable
09/03/2026 11 AM PDT 6.97 237 + Not Applicable
09/03/2026 12 PM PDT 7.04 253 + Not Applicable
09/03/2026 01 PM PDT 7.08 262 + Not Applicable
09/03/2026 02 PM PDT 7.11 268 + Not Applicable
09/03/2026 03 PM PDT 7.12 271 + Not Applicable
09/03/2026 04 PM PDT 7.11 268 - Not Applicable
09/03/2026 05 PM PDT 7.09 264 - Not Applicable
09/03/2026 06 PM PDT 7.06 257 - Not Applicable
09/03/2026 07 PM PDT 7.02 248 - Not Applicable
09/03/2026 08 PM PDT 6.98 240 - Not Applicable
09/03/2026 09 PM PDT 6.93 229 - Not Applicable
09/03/2026 10 PM PDT 6.88 219 - Not Applicable
09/03/2026 11 PM PDT 6.82 207 - Not Applicable
09/04/2026 12 AM PDT 6.76 196 - Not Applicable
09/04/2026 01 AM PDT 6.70 185 - Not Applicable
09/04/2026 02 AM PDT 6.64 174 - Not Applicable
09/04/2026 03 AM PDT 6.58 164 - Not Applicable
09/04/2026 04 AM PDT 6.52 155 - Not Applicable
09/04/2026 05 AM PDT 6.46 146 - Not Applicable
09/04/2026 06 AM PDT 6.39 135 - Not Applicable
09/04/2026 07 AM PDT 6.33 127 - Not Applicable
09/04/2026 08 AM PDT 6.27 119 - Not Applicable
09/04/2026 09 AM PDT 6.21 111 - Not Applicable
09/04/2026 10 AM PDT 6.16 105 - Not Applicable
09/04/2026 11 AM PDT 6.11 99 - Not Applicable
09/04/2026 12 PM PDT 6.05 92 - Not Applicable
09/04/2026 01 PM PDT 6.00 87 - Not Applicable
09/04/2026 02 PM PDT 5.95 82 - Not Applicable
09/04/2026 03 PM PDT 5.90 77 - Not Applicable
09/04/2026 04 PM PDT 5.86 73 - Not Applicable
09/04/2026 05 PM PDT 5.81 68 - Not Applicable
09/04/2026 06 PM PDT 5.77 65 - Not Applicable
09/04/2026 07 PM PDT 5.72 61 - Not Applicable
09/04/2026 08 PM PDT 5.68 58 - Not Applicable
09/04/2026 09 PM PDT 5.64 54 - Not Applicable
09/04/2026 10 PM PDT 5.60 51 - Not Applicable
09/04/2026 11 PM PDT 5.56 49 - Not Applicable
09/05/2026 12 AM PDT 5.52 46 - Not Applicable
09/05/2026 01 AM PDT 5.48 43 - Not Applicable
09/05/2026 02 AM PDT 5.44 41 - Not Applicable
09/05/2026 03 AM PDT 5.41 39 - Not Applicable
09/05/2026 04 AM PDT 5.37 36 - Not Applicable
09/05/2026 05 AM PDT 5.34 35 - Not Applicable
09/05/2026 06 AM PDT 5.30 33 - Not Applicable
09/05/2026 07 AM PDT 5.27 31 - Not Applicable
09/05/2026 08 AM PDT 5.24 29 - Not Applicable
09/05/2026 09 AM PDT 5.21 28 - Not Applicable
09/05/2026 10 AM PDT 5.19 27 - Not Applicable
09/05/2026 11 AM PDT 5.16 26 - Not Applicable
09/05/2026 12 PM PDT 5.14 25 - Not Applicable
09/05/2026 01 PM PDT 5.12 24 - Not Applicable
09/05/2026 02 PM PDT 5.10 23 - Not Applicable
09/05/2026 03 PM PDT 5.08 22 - Not Applicable
09/05/2026 04 PM PDT 5.06 21 - Not Applicable
09/05/2026 05 PM PDT 5.04 21 - Not Applicable
09/05/2026 06 PM PDT 5.03 20 - Not Applicable
09/05/2026 07 PM PDT 5.01 19 - Not Applicable
09/05/2026 08 PM PDT 5.00 19 - Not Applicable
09/05/2026 09 PM PDT 4.99 19 - Not Applicable
09/05/2026 10 PM PDT 4.99 19 0 Not Applicable
09/05/2026 11 PM PDT 4.98 18 - Not Applicable
09/06/2026 12 AM PDT 4.97 18 - Not Applicable
09/06/2026 01 AM PDT 4.96 18 - Not Applicable
09/06/2026 02 AM PDT 4.96 18 0 Not Applicable
09/06/2026 03 AM PDT 4.95 17 - Not Applicable
09/06/2026 04 AM PDT 4.95 17 0 Not Applicable
09/06/2026 05 AM PDT 4.95 17 0 Not Applicable
#
# NOTE 1: Stages are rounded to the nearest hundredth (.01) of a foot.
# NOTE 2: Flows are rounded to the nearest (1) cfs.
# NOTE 3: Trends are determined using hourly change in unrounded stage and flow.
# NOTE 4: Maximum Values are determined using unrounded stage and flow.
|